Погода в Санкт-Галлене

Швейцария     47°25′39″N   9°22′40″E
темп.,
°C
ветер,
м/с
пор.,
м/с
влажн.,
%
обл.,
%
осадки,
мм/ч
давл.,
гПа
погр.,
м
17 мая, вт
вт1723:00+15ю238752 3.6 102263
02:00+13ююз22871 5.6 102343
05:00+12ю12855 0.0 102260
08:00+14юв117984 0.0 1022137
11:00+17с117096 0.0 1022342
14:00+19сз1165100 0.0 1021416
17:00+21ссв125916 0.0 1019348
20:00+19св22755 0.0 101919
18 мая, ср
ср1823:00+15ю11865 0.0 102123
02:00+14ююв11835 0.0 102140
05:00+13ю11833 0.0 102240
08:00+15с007633 0.0 1023136
11:00+18с1171100 0.0 1023293
14:00+20ссз02633 0.0 1022370
17:00+23с13570 0.0 1020381
20:00+20с33745 0.0 101925
19 мая, чт
чт1923:00+16ююз228815 0.0 102119
02:00+15юз118266 0.0 102141
05:00+14ююз1181100 0.0 102148
08:00+17ю017326 0.0 1022113
11:00+21сз236764 0.0 1022472
14:00+23зсз365860 0.0 1022813
17:00+25зсз1360100 0.0 1021594
20:00+21юз127869 0.1 102250
20 мая, пт
пт2023:00+16ю228392 0.2 102419
02:00+15ю228012 0.2 102437
05:00+15ююв227880 0.0 102351
08:00+18ю11715 0.0 102387
11:00+23сз215953 0.0 1021306
14:00+23сз12655 0.0 1019394
17:00+26з14587 0.0 1018424
20:00+21юз477660 0.1 1020128
21 мая, сб
сб2123:00+18ю4678100 0.0 1021101
02:00+16ююз458899 3.2 102274
05:00+15юз349285 3.1 102383
08:00+16ююз1191100 5.1 102460
11:00+18ссз238253 0.5 1023475
14:00+19вюв1179100 1.7 1022428
17:00+21юз237186 0.9 1021519
20:00+20ю00785 1.2 102013